TimeEST,TemperatureF,Dew PointF,Humidity,Sea Level PressureIn,VisibilityMPH,Wind Direction,Wind SpeedMPH,Gust SpeedMPH,PrecipitationIn,Events,Conditions,WindDirDegrees,DateUTC
12:53 AM,37.9,27.0,65,29.81,10.0,WNW,24.2,32.2,N/A,,Overcast,290,2013-01-01 05:53:00
1:53 AM,37.9,32.0,79,29.79,10.0,West,13.8,27.6,0.00,,Overcast,260,2013-01-01 06:53:00
2:53 AM,39.9,28.9,65,29.78,10.0,West,16.1,23.0,N/A,,Overcast,280,2013-01-01 07:53:00
3:53 AM,39.0,27.0,62,29.78,10.0,West,11.5,-,N/A,,Overcast,280,2013-01-01 08:53:00
4:53 AM,39.0,27.0,62,29.78,10.0,WNW,13.8,23.0,N/A,,Overcast,290,2013-01-01 09:53:00
5:53 AM,37.9,28.0,68,29.78,10.0,West,15.0,-,N/A,,Overcast,270,2013-01-01 10:53:00
6:53 AM,37.9,28.9,70,29.78,10.0,West,17.3,24.2,N/A,,Partly Cloudy,280,2013-01-01 11:53:00
7:53 AM,39.0,26.1,60,29.78,10.0,West,19.6,28.8,N/A,,Clear,280,2013-01-01 12:53:00
8:53 AM,39.0,26.1,60,29.80,10.0,West,17.3,24.2,N/A,,Clear,280,2013-01-01 13:53:00
9:53 AM,39.9,25.0,55,29.80,10.0,West,21.9,27.6,N/A,,Clear,280,2013-01-01 14:53:00
10:53 AM,39.9,25.0,55,29.79,10.0,West,17.3,28.8,N/A,,Partly Cloudy,280,2013-01-01 15:53:00
11:53 AM,39.9,25.0,55,29.76,10.0,WNW,23.0,28.8,N/A,,Clear,290,2013-01-01 16:53:00
12:53 PM,37.9,23.0,55,29.75,10.0,WNW,19.6,28.8,N/A,,Clear,290,2013-01-01 17:53:00
1:53 PM,37.0,21.9,54,29.75,10.0,WNW,15.0,21.9,N/A,,Clear,290,2013-01-01 18:53:00
2:53 PM,37.0,21.9,54,29.75,10.0,WNW,11.5,21.9,N/A,,Clear,300,2013-01-01 19:53:00
3:53 PM,35.1,21.0,57,29.76,10.0,WNW,17.3,23.0,N/A,,Clear,300,2013-01-01 20:53:00
4:53 PM,35.1,19.0,52,29.79,10.0,WNW,16.1,23.0,N/A,,Clear,290,2013-01-01 21:53:00
5:53 PM,34.0,19.0,54,29.80,10.0,NW,18.4,25.3,N/A,,Clear,310,2013-01-01 22:53:00
6:53 PM,33.1,17.1,52,29.83,10.0,WNW,20.7,28.8,N/A,,Clear,300,2013-01-01 23:53:00
7:53 PM,30.9,14.0,50,29.85,10.0,NW,18.4,28.8,N/A,,Clear,310,2013-01-02 00:53:00
8:53 PM,30.0,12.9,49,29.87,10.0,NW,12.7,27.6,N/A,,Clear,310,2013-01-02 01:53:00
9:53 PM,28.9,12.9,51,29.88,10.0,NW,16.1,21.9,N/A,,Clear,310,2013-01-02 02:53:00
10:53 PM,28.0,12.9,53,29.90,10.0,NW,13.8,21.9,N/A,,Clear,320,2013-01-02 03:53:00
11:53 PM,27.0,12.0,53,29.90,10.0,NW,16.1,24.2,N/A,,Clear,310,2013-01-02 04:53:00